Location: *
(29.1167°S, 130.0000°E)
Time: 12:12:10
(UTC+00:00)

CSL-04 Rocket - Pass Details

Date: 21 July 2019
Orbit: 806 x 860 km, 99.0° (Epoch: 21 August)

Event Time Altitude Azimuth Distance (km) Brightness Sun altitude
Exits shadow 10:56:54 30° 191° (S) 1,491 4.9 -29.0°
Maximum altitude 10:59:28 55° 253° (WSW) 1,018 4.3 -29.6°
Drops below altitude 10° 11:04:44 10° 330° (NNW) 2,439 6.5 -30.7°
Sets 11:07:06 0° 334° (NNW) 3,357 7.2 -31.2°
